Location: Bay Shore Mobile Home Park
(38.5762°N, 75.0841°W)
Time: 15:48:09
(UTC+00:00)

ARIANE 6 FM1 Upper Stage - Visible Passes

Search period start: 22 January 2026 00:00
Search period end: 01 February 2026 00:00
Orbit: 522 x 610 km, 62.0° (Epoch: 22 January)

Date Brightness Start Highest point End Pass type
(mag) Time Alt. Az. Time Alt. Az. Time Alt. Az.
22 Jan 3.4 23:57:25 10° SW 00:01:22 47° NW 00:02:48 32° N visible
23 Jan 4.1 23:57:54 10° WSW 00:01:35 32° NW 00:03:34 21° N visible
24 Jan 4.7 23:58:35 10° W 00:01:50 22° NW 00:04:13 14° N visible
25 Jan 5.1 23:59:30 10° W 00:02:07 16° NW 00:04:43 10° N visible
27 Jan 5.3 00:00:49 10° WNW 00:02:26 12° NW 00:04:02 10° NNW visible
